Vertical_Velocity
-13 -1 5 -10 -6 32 -11 -16 -3 -3 -18 -26 3 -5 9 30 23 2 12 21 -22 -3 3 -5 4 3 -2 10 -4 4 -5 7 -2 0 -2 6 3 1 4 2 -2 -0 3 1
-10 -14 -1 0 2 -13 16 6 -22 -12 -48 32 17 -6 12 -6 0 16 10 29 14 9 -4 18 3 1 3 4 13 -4 -5 7 7 -7 -3 0 -1 -4 10 3 4 6 21 16
-24 0 1 -26 7 -8 -14 -4 3 -16 -21 -3 -21 -18 2 16 -9 -3 -12 17 7 22 12 -6 13 2 7 6 2 -2 -2 8 11 -1 2 -1 6 7 -2 0 -3 -2 -4 -6
-33 -4 -20 -2 -1 3 -6 -8 11 -6 -11 8 -10 -21 11 14 -26 -7 0 0 8 14 0 25 7 16 4 3 13 4 -1 -4 -1 -1 -4 -1 -2 -1 2 -1 -3 -2 1 -1
-14 -6 -13 -6 -2 -19 2 -19 19 -28 4 6 -2 -11 -31 -2 -2 -8 -5 -5 -1 5 5 8 -7 -2 2 -1 4 9 -5 2 7 -3 4 -4 -4 -8 -9 -9 -3 -4 -4 -2
-4 -11 -3 -19 4 -4 5 -25 -8 -12 2 -13 6 -31 29 13 -5 -5 -8 -11 -21 6 0 -3 -7 -3 -11 -15 11 5 -3 -9 6 -5 -8 -10 -4 0 -4 -2 -0 -1 -5 1
21 33 14 -8 3 7 -2 -9 1 -3 -4 -2 -13 10 1 -0 6 27 1 -3 -1 11 7 5 -7 -10 -12 -12 17 10 -7 -1 0 -5 -3 -4 -6 -3 -3 -1 -7 -5 1 3
0 6 31 22 16 -1 1 -2 4 1 1 -5 2 3 5 -2 9 8 8 8 6 -10 7 -2 0 -10 -11 1 16 3 -5 -3 5 4 2 -4 -4 -2 4 -1 2 -4 -2 5
-1 7 -4 1 -2 -3 -5 0 -1 0 4 12 34 2 -5 13 1 33 8 3 -3 -1 -3 10 8 -9 5 1 19 9 -8 -7 -8 -1 -0 1 -5 3 -2 2 1 -5 -3 -2
-3 -3 -11 -2 -3 -6 -6 -2 1 -2 -4 0 40 7 64 42 13 -2 -1 8 -6 8 7 6 -2 6 -6 6 8 12 -15 -7 -4 -4 4 1 -1 -8 -4 2 12 -10 -10 -8
-9 2 -11 -4 -5 2 3 -2 1 1 0 -0 26 8 10 5 11 4 -2 -12 3 7 2 1 0 -1 -3 8 8 5 -18 -1 -5 -5 2 7 -3 4 12 0 1 -7 -11 -9
-3 -3 -7 5 -6 -3 8 3 5 1 2 2 10 -4 5 13 1 3 0 -7 1 4 5 1 -1 -4 -0 5 -3 -8 -3 -6 -2 6 4 18 -4 -5 9 -1 -4 -3 -4 1
-7 -9 -3 -1 -4 -6 -1 -2 8 19 5 4 1 -1 0 1 -5 5 -6 -2 -3 3 9 1 2 -2 -0 -8 -2 -1 -0 5 2 6 12 -13 -7 -2 11 -7 -10 -6 -2 -6
1 -2 -5 0 -7 -2 -4 -1 6 10 15 32 13 6 2 10 -6 4 0 -5 -3 -3 -2 -1 -1 -2 -4 1 17 9 7 6 -5 -2 -5 5 0 0 -5 -5 0 -9 -4 -9
-2 -3 -1 -0 -1 -3 -7 -10 4 1 6 18 25 7 0 2 10 -2 -1 -1 0 -1 -0 -1 0 7 12 9 4 -5 -4 -2 3 -6 2 -0 0 -5 -7 -12 -17 -4 -1 5
4 -1 2 -3 0 2 -1 -10 -3 7 -1 4 3 2 6 10 3 5 3 2 1 2 4 2 5 4 -1 -2 3 3 -2 -5 -6 4 4 -5 -7 -10 -9 -13 -12 -6 -3 -1
-1 2 -1 1 -0 -3 -3 1 -6 -5 -0 4 2 -0 6 21 7 1 3 1 3 3 3 4 2 2 2 1 1 -4 -3 1 5 1 -4 1 -6 -3 -9 -8 -3 -7 -4 -5
-4 -2 -2 -0 1 2 -6 -3 1 -4 3 0 0 1 9 1 2 2 2 1 -2 -3 -1 2 -1 1 1 -1 -1 -0 2 -1 -4 -3 0 -0 -5 -9 -8 -10 -3 -3 -4 -3
-1 -2 -3 3 5 10 6 9 5 6 13 4 3 7 1 2 3 1 2 2 5 -0 3 -2 -2 1 -1 2 2 -1 -1 -2 -0 -1 0 -4 -8 -5 -5 -5 -1 -2 -1 -1
-2 -2 -1 -1 -2 -4 -2 -4 -3 12 1 4 1 2 3 -3 -5 -1 -7 -3 -3 -1 -1 -3 -0 -2 3 1 -5 -1 -2 -3 -0 0 -5 -3 -4 -7 -0 -2 -1 -4 -1 -1
-1 -0 -5 -4 -5 -4 -1 -1 1 4 6 3 3 -2 -5 2 1 0 -3 -0 -3 -3 -2 -1 -3 -0 5 0 -4 -5 -0 -3 -2 -1 -0 -5 -3 -2 -5 -1 -1 -3 -3 1
-1 -1 0 1 5 -3 1 1 0 4 9 6 -2 -1 2 3 -2 -2 0 -1 -5 -3 -5 1 -1 -2 -1 -4 -2 1 0 -1 1 0 -2 -4 -0 -1 -1 -2 -1 -2 -0 0
-0 -1 -1 -2 1 2 -2 -1 4 2 2 2 4 2 -5 -6 6 0 -2 3 0 -0 4 -2 -3 -3 1 -0 -4 -2 -1 -1 1 -0 -3 -2 -1 -1 -0 -0 -1 -1 -3 -1
-1 0 -0 1 1 -1 1 1 -3 -3 2 3 3 2 3 3 11 5 -2 -4 -1 -0 -2 -3 -4 -3 -3 -3 -4 -2 0 0 1 0 -1 -0 -2 -0 -0 -1 -0 -3 -0 -3
-1 -0 0 0 -0 1 -1 -1 -1 1 1 -2 -2 8 0 2 0 -5 -0 -3 -2 -1 -2 -2 -2 -1 1 0 -3 -2 -1 -0 -1 -0 1 -2 -0 1 0 0 -1 -2 -2 -2
-2 -3 -1 -2 1 1 1 2 1 0 0 0 1 1 1 -0 -1 0 0 1 1 -1 -2 -4 -8 -7 1 4 2 1 -0 -1 -1 -1 -1 -1 -2 -1 -1 0 -1 -1 -1 2
-1 -1 -1 -1 0 -0 -0 1 1 0 3 3 1 1 0 -0 -0 -1 -1 -1 -1 -2 -7 -9 -10 -5 2 6 4 0 0 0 0 -0 -2 -1 -1 -2 -2 -1 -1 -0 -0 1
Height
5469 5475 5479 5484 5490 5485 5477 5489 5486 5501 5490 5515 5508 5512 5522 5519 5521 5521 5522 5513 5516 5522 5527 5531 5537 5540 5545 5548 5551 5556 5560 5564 5565 5565 5568 5571 5572 5573 5576 5577 5579 5581 5582 5584
5455 5459 5462 5461 5464 5470 5480 5476 5473 5478 5482 5492 5490 5497 5507 5507 5507 5508 5509 5508 5508 5506 5509 5514 5521 5526 5529 5531 5533 5539 5544 5547 5549 5551 5553 5554 5555 5558 5560 5562 5565 5566 5570 5570
5441 5451 5449 5443 5462 5458 5459 5463 5460 5457 5469 5475 5475 5481 5486 5486 5491 5496 5498 5503 5504 5506 5504 5507 5510 5511 5513 5518 5521 5526 5528 5531 5533 5536 5539 5540 5541 5544 5547 5550 5551 5550 5553 5555
5431 5436 5427 5447 5448 5443 5437 5444 5449 5449 5453 5456 5462 5464 5471 5471 5476 5481 5486 5491 5491 5493 5496 5501 5500 5498 5501 5503 5510 5514 5518 5520 5522 5523 5529 5532 5533 5535 5537 5539 5540 5541 5542 5544
5422 5423 5422 5429 5426 5426 5430 5442 5437 5433 5439 5440 5445 5449 5457 5461 5463 5466 5472 5476 5479 5481 5484 5489 5492 5493 5493 5496 5499 5500 5504 5508 5510 5512 5516 5518 5521 5522 5525 5528 5530 5530 5529 5531
5416 5414 5414 5414 5415 5415 5416 5425 5422 5426 5428 5428 5432 5432 5441 5442 5447 5452 5458 5465 5467 5469 5473 5477 5482 5481 5482 5486 5490 5490 5491 5499 5504 5506 5507 5508 5509 5510 5511 5513 5513 5514 5515 5516
5406 5404 5407 5406 5408 5409 5409 5413 5413 5416 5417 5418 5418 5425 5427 5429 5436 5439 5445 5449 5455 5459 5460 5466 5469 5471 5475 5480 5483 5483 5486 5491 5493 5493 5492 5493 5495 5496 5496 5496 5496 5496 5497 5497
5395 5398 5398 5394 5398 5401 5403 5403 5406 5408 5408 5408 5411 5413 5417 5423 5426 5430 5436 5437 5441 5448 5452 5456 5459 5459 5467 5473 5475 5473 5476 5479 5482 5483 5482 5481 5481 5481 5480 5480 5480 5479 5479 5479
5389 5388 5387 5388 5390 5391 5393 5396 5399 5402 5403 5403 5397 5408 5414 5418 5421 5419 5424 5427 5432 5439 5442 5445 5447 5453 5460 5465 5466 5464 5466 5468 5471 5471 5470 5470 5469 5468 5467 5465 5463 5463 5462 5462
5384 5383 5381 5384 5386 5387 5388 5390 5393 5395 5397 5399 5403 5402 5402 5405 5409 5412 5418 5420 5425 5430 5432 5436 5440 5446 5452 5457 5457 5454 5457 5460 5461 5460 5458 5457 5455 5455 5453 5452 5449 5449 5447 5446
5377 5378 5377 5378 5381 5382 5382 5382 5386 5390 5394 5395 5398 5394 5398 5402 5404 5408 5409 5412 5418 5424 5427 5432 5436 5442 5447 5449 5449 5447 5451 5452 5453 5451 5450 5447 5446 5447 5446 5443 5439 5436 5430 5427
5370 5369 5368 5372 5375 5375 5377 5379 5380 5384 5387 5390 5390 5392 5394 5398 5402 5404 5406 5409 5414 5419 5422 5427 5433 5438 5441 5442 5442 5442 5443 5445 5445 5444 5444 5439 5437 5438 5435 5430 5427 5423 5418 5414
5361 5361 5361 5361 5366 5368 5370 5373 5375 5379 5382 5385 5382 5387 5390 5394 5395 5398 5403 5406 5410 5415 5418 5423 5427 5431 5434 5435 5434 5435 5436 5436 5437 5435 5431 5428 5428 5428 5425 5421 5417 5412 5409 5405
5353 5351 5352 5353 5356 5360 5362 5367 5370 5373 5377 5380 5379 5382 5386 5391 5392 5394 5397 5402 5407 5411 5414 5418 5422 5424 5425 5426 5426 5427 5428 5427 5426 5425 5423 5423 5423 5419 5416 5413 5409 5404 5400 5397
5344 5343 5342 5343 5345 5350 5353 5357 5362 5367 5370 5373 5374 5379 5382 5384 5387 5389 5393 5397 5402 5406 5410 5412 5415 5417 5419 5420 5420 5421 5419 5420 5420 5420 5419 5417 5415 5411 5407 5403 5398 5393 5391 5389
5339 5337 5336 5336 5338 5341 5345 5350 5355 5361 5366 5370 5373 5375 5378 5380 5382 5385 5389 5394 5397 5402 5405 5407 5410 5411 5413 5413 5414 5414 5415 5416 5415 5414 5412 5410 5406 5403 5398 5394 5390 5386 5383 5380
5332 5330 5329 5330 5331 5333 5336 5341 5348 5355 5360 5365 5368 5372 5376 5378 5380 5382 5386 5390 5394 5397 5399 5402 5404 5405 5407 5408 5408 5409 5409 5409 5408 5407 5405 5402 5399 5394 5391 5387 5383 5380 5377 5375
5328 5326 5324 5323 5324 5327 5330 5333 5340 5347 5355 5358 5363 5367 5370 5373 5376 5380 5384 5386 5389 5392 5393 5395 5397 5399 5399 5400 5401 5402 5402 5401 5401 5399 5397 5394 5391 5387 5384 5380 5376 5374 5372 5371
5327 5324 5322 5321 5320 5321 5322 5326 5329 5339 5347 5351 5357 5361 5365 5369 5373 5376 5378 5380 5383 5385 5386 5388 5389 5390 5391 5392 5393 5393 5393 5393 5392 5390 5388 5385 5383 5380 5376 5372 5369 5368 5366 5364
5326 5322 5319 5316 5314 5313 5315 5319 5322 5328 5336 5345 5351 5356 5361 5365 5368 5371 5373 5374 5376 5377 5379 5380 5381 5382 5383 5383 5383 5384 5384 5383 5383 5381 5379 5376 5373 5371 5367 5363 5361 5361 5360 5358
5326 5322 5319 5315 5313 5312 5312 5314 5319 5325 5332 5341 5347 5353 5357 5360 5362 5365 5366 5367 5369 5370 5371 5371 5372 5372 5373 5373 5374 5374 5373 5374 5373 5371 5369 5368 5365 5361 5358 5355 5353 5352 5351 5351
5328 5325 5321 5319 5317 5316 5315 5315 5320 5326 5331 5338 5344 5348 5351 5354 5357 5357 5359 5360 5361 5362 5362 5362 5363 5362 5362 5363 5364 5365 5364 5364 5363 5362 5360 5359 5355 5353 5349 5347 5345 5343 5341 5340
5329 5327 5324 5323 5322 5321 5321 5322 5325 5329 5333 5337 5340 5343 5347 5348 5350 5351 5353 5354 5354 5353 5354 5355 5354 5353 5353 5354 5354 5354 5354 5354 5353 5352 5351 5349 5346 5343 5340 5338 5337 5334 5332 5330
5329 5327 5325 5324 5323 5323 5324 5325 5327 5329 5331 5333 5336 5339 5342 5343 5343 5344 5346 5347 5347 5348 5347 5346 5345 5344 5344 5344 5344 5344 5345 5345 5344 5343 5341 5340 5337 5334 5331 5330 5329 5327 5324 5319
5326 5324 5323 5322 5322 5322 5323 5323 5324 5325 5327 5329 5331 5332 5334 5335 5338 5339 5340 5340 5339 5338 5337 5334 5331 5328 5327 5329 5331 5333 5334 5334 5334 5334 5332 5330 5328 5325 5323 5323 5322 5321 5320 5318
5321 5320 5319 5317 5317 5317 5317 5318 5319 5321 5322 5323 5325 5326 5328 5329 5331 5332 5332 5332 5331 5328 5325 5320 5313 5306 5305 5308 5314 5319 5322 5324 5324 5324 5322 5321 5319 5317 5316 5315 5315 5315 5315 5314
5315 5314 5313 5312 5311 5311 5311 5312 5312 5314 5315 5317 5318 5319 5321 5322 5323 5323 5322 5322 5321 5319 5317 5311 5306 5302 5300 5301 5304 5309 5312 5313 5314 5313 5313 5311 5310 5309 5308 5308 5308 5309 5309 5309